This is the latest recevied weather packets stored in our database for station/object KG6QHD-13. If no packets are shown the sender has not sent any weather packets the latest 10 day(s).
| Time | Temp. | Humidity | Pressure | Rain* | Wind** | Luminosity | Snow |
|---|---|---|---|---|---|---|---|
| 1777423845 | 8.33° C | 51% | 1019.9 hPa | 0 mm | - | 104 W/m² | - |
| 1777420857 | 8.89° C | 51% | 1019.2 hPa | 0 mm | - | 334 W/m² | - |
| 1777419057 | 8.89° C | 52% | 1018.8 hPa | 0 mm | - | 427 W/m² | - |
| 1777415749 | 8.33° C | 57% | 1018.3 hPa | 0 mm | - | 179 W/m² | - |
| 1777415456 | 7.78° C | 57% | 1018.3 hPa | 0 mm | - | 251 W/m² | - |
| 1777415150 | 7.78° C | 59% | 1018.3 hPa | 0 mm | - | 183 W/m² | - |
| 1777413348 | 8.33° C | 63% | 1018.2 hPa | 0 mm | - | 102 W/m² | - |
| 1777412753 | 8.33° C | 62% | 1018.2 hPa | 0 mm | - | 104 W/m² | - |
| 1777412149 | 8.33° C | 60% | 1018.3 hPa | 0 mm | - | 98 W/m² | - |
| 1777411248 | 8.89° C | 59% | 1018.3 hPa | 0 mm | - | 172 W/m² | - |
| 1777410953 | 8.33° C | 60% | 1018.4 hPa | 0 mm | - | 357 W/m² | - |
| 1777410348 | 8.33° C | 61% | 1018.4 hPa | 0 mm | - | 279 W/m² | - |
| 1777407648 | 9.44° C | 55% | 1018.2 hPa | 0 mm | - | 148 W/m² | - |
| 1777407047 | 9.44° C | 54% | 1017.6 hPa | 0 mm | - | 171 W/m² | - |
| 1777405564 | 10° C | 55% | 1017.5 hPa | 0 mm | - | 346 W/m² | - |
| 1777403444 | 10° C | 56% | 1017.2 hPa | 0 mm | - | 461 W/m² | - |
| 1777402853 | 10° C | 56% | 1017 hPa | 0 mm | - | 350 W/m² | - |
| 1777401960 | 9.44° C | 60% | 1016.9 hPa | 0 mm | - | 330 W/m² | - |
| 1777401349 | 8.89° C | 60% | 1017 hPa | 0 mm | - | 316 W/m² | - |
| 1777400748 | 8.89° C | 64% | 1017.2 hPa | 0 mm | - | 1092 W/m² | - |
| 1777400448 | 8.89° C | 64% | 1017.4 hPa | 0 mm | - | 156 W/m² | - |
| 1777398948 | 7.78° C | 72% | 1017.2 hPa | 0 mm | - | 896 W/m² | - |
| 1777397454 | 6.67° C | 72% | 1017.5 hPa | 0 mm | - | 302 W/m² | - |
| 1777397148 | 6.67° C | 72% | 1017.5 hPa | 0 mm | - | 262 W/m² | - |
| 1777395349 | 5.56° C | 81% | 1017.5 hPa | 0 mm | - | 870 W/m² | - |
* Rain latest hour (hover to see other rain measurements)
** Current wind speed in m/s (hover to see current wind gust speed)